Camp Bastion, Afghanistan

1:50 AM +0430 on May 01, 2017 (GMT +0430)
Camp Bastion

Weather History for EQBH - March, 2014

Change the Weather History Date:

Friday, March 28, 2014

  Actual Average Record
Temperature  
Mean Temperature 60 °F -  
Max Temperature 69 °F - - ()
Min Temperature 50 °F - - ()
Degree Days  
Heating Degree Days 6    
Growing Degree Days 10 (Base 50)    
Moisture  
Dew Point 33 °F    
Average Humidity 39    
Maximum Humidity 63    
Minimum Humidity 15    
Precipitation  
Precipitation 0.00 in - - ()
Sea Level Pressure  
Sea Level Pressure 30.06 in    
Wind  
Wind Speed 6 mph ()    
Max Wind Speed 10 mph    
Max Gust Speed 16 mph    
Visibility 5.4 miles    
Events      
T = Trace of Precipitation, MM = Missing Value Source: Averaged Metar Reports

Daily Weather History Graph

Daily Weather History Graph

Search for Another Location

Airport or City:

Trip Planner

Search our weather history database for the weather conditions in past years. The results will help you decide how hot, cold, wet, or windy it might be!

Date:

Astronomy

Mar. 28, 2014 Rise Set
Actual Time 6:07 AM +0430 6:29 PM +0430
Civil Twilight 5:42 AM +0430 6:54 PM +0430
Nautical Twilight 5:14 AM +0430 7:23 PM +0430
Astronomical Twilight 4:45 AM +0430 7:52 PM +0430
Moon 4:11 AM +0430 (3/28) 4:05 PM +0430 (3/28)
Length of Visible Light 13h 11m
Length of Day
12h 22m
Waning Crescent, 8% of the Moon is Illuminated
Mar 28
Waning Crescent
Mar 30
New
Apr 7
First Quarter
Apr 15
Full
Apr 22
Last Quarter

Hourly Weather History & Observations

Time (+0430) Temp. Dew Point Humidity Pressure Visibility Wind Dir Wind Speed Gust Speed Precip Events Conditions
12:20 AM 55.4 °F 42.8 °F 63% 30.04 in 6.2 mi South 5.8 mph - N/A   Mostly Cloudy
1:20 AM 55.4 °F 41.0 °F 58% 30.04 in 5.0 mi SSW 8.1 mph - N/A   Mostly Cloudy
2:20 AM 55.4 °F 35.6 °F 47% 30.04 in 3.7 mi WSW 10.4 mph - N/A   Mostly Cloudy
3:20 AM 53.6 °F 35.6 °F 51% 30.04 in 3.7 mi WSW 9.2 mph - N/A   Mostly Cloudy
4:20 AM 50.0 °F 35.6 °F 58% 30.04 in 4.3 mi West 3.5 mph - N/A   Scattered Clouds
5:20 AM 50.0 °F 37.4 °F 62% 30.06 in 3.1 mi WNW 4.6 mph - N/A   Scattered Clouds
6:20 AM 50.0 °F 37.4 °F 62% 30.06 in 2.5 mi WNW 2.3 mph - N/A   Scattered Clouds
7:20 AM 51.8 °F 37.4 °F 58% 30.09 in 3.1 mi NW 3.5 mph - N/A   Clear
8:20 AM 55.4 °F 37.4 °F 51% 30.09 in 6.2 mi NNW 6.9 mph - N/A   Clear
9:20 AM 59.0 °F 39.2 °F 48% 30.12 in 6.2 mi West 6.9 mph - N/A   Clear
10:20 AM 62.6 °F 35.6 °F 37% 30.12 in 6.2 mi WSW 9.2 mph - N/A   Clear
11:20 AM 62.6 °F 35.6 °F 37% 30.09 in 6.2 mi WNW 9.2 mph - N/A   Partly Cloudy
12:20 PM 64.4 °F 33.8 °F 32% 30.09 in 6.2 mi West 9.2 mph - N/A   Partly Cloudy
1:20 PM 68.0 °F 32.0 °F 26% 30.06 in 6.2 mi West 4.6 mph 16.1 mph N/A   Partly Cloudy
2:20 PM 68.0 °F 30.2 °F 24% 30.04 in 6.2 mi WNW 8.1 mph - N/A   Partly Cloudy
3:20 PM 69.8 °F 28.4 °F 21% 30.01 in 6.2 mi NNW 3.5 mph - N/A   Partly Cloudy
4:20 PM 69.8 °F 48.2 °F 46% 30.01 in 6.2 mi WNW 6.9 mph - N/A   Partly Cloudy
5:20 PM 69.8 °F 19.4 °F 15% 30.01 in 6.2 mi WNW 4.6 mph - N/A   Partly Cloudy
6:20 PM 68.0 °F 21.2 °F 17% 30.01 in 6.2 mi West 8.1 mph - N/A   Partly Cloudy
7:20 PM 64.4 °F 23.0 °F 21% 30.04 in 6.2 mi West 3.5 mph - N/A   Partly Cloudy
8:20 PM 64.4 °F 24.8 °F 22% 30.06 in 6.2 mi West 3.5 mph - N/A   Clear
9:20 PM 62.6 °F 26.6 °F 26% 30.06 in 6.2 mi West 3.5 mph - N/A   Clear
10:20 PM 60.8 °F 28.4 °F 29% 30.06 in 6.2 mi NW 4.6 mph - N/A   Clear
11:20 PM 59.0 °F 28.4 °F 31% 30.06 in 6.2 mi South 2.3 mph - N/A   Clear